When you browse on this site, cookies collect data to enhance your experience and personalize the content and advertising you see.
Visit our Privacy Policy to learn more. By continuing to use the site, you agree to this use of cookies and data.

Stündliche Wetter Puerto Tejada

Heute, 8 August, Samstag

Zeit Temperatur Niederschläge Wind Luftdruck Luftfeuchtigkeit
00:00 +23°C° 0 mm 1 m/S 679 mmHg 78%
01:00 +22°C° 0 mm 1 m/S 679 mmHg 78%
02:00 +22°C° 0 mm 1 m/S 679 mmHg 79%
03:00 +22°C° 0 mm 1 m/S 678 mmHg 79%
04:00 +20°C° 0 mm 0 m/S 678 mmHg 80%
05:00 +20°C° 0 mm 0 m/S 678 mmHg 80%
06:00 +20°C° 0 mm 0 m/S 679 mmHg 80%
07:00 +21°C° 0 mm 0 m/S 679 mmHg 79%
08:00 +23°C° 0 mm 0 m/S 680 mmHg 72%
09:00 +27°C° 0 mm 1 m/S 680 mmHg 64%
10:00 +29°C° 0 mm 1 m/S 681 mmHg 56%
11:00 +31°C° 0 mm 1 m/S 681 mmHg 52%
12:00 +32°C° 0 mm 1 m/S 680 mmHg 48%
13:00 +33°C° 0 mm 1 m/S 680 mmHg 44%
14:00 +33°C° 0.1 mm 1 m/S 680 mmHg 45%
15:00 +33°C° 0.1 mm 1 m/S 679 mmHg 47%
16:00 +32°C° 0.1 mm 1 m/S 678 mmHg 49%
17:00 +30°C° 0.1 mm 1 m/S 678 mmHg 57%
18:00 +28°C° 0.1 mm 1 m/S 678 mmHg 65%
19:00 +26°C° 0.1 mm 1 m/S 678 mmHg 74%
20:00 +25°C° 0.2 mm 1 m/S 679 mmHg 74%
21:00 +25°C° 0.2 mm 1 m/S 679 mmHg 75%
22:00 +24°C° 0.2 mm 1 m/S 680 mmHg 76%
23:00 +23°C° 0.1 mm 1 m/S 680 mmHg 76%

Morgen, 9 August, Sonntag

Zeit Temperatur Niederschläge Wind Luftdruck Luftfeuchtigkeit
00:00 +23°C° 0.1 mm 1 m/S 680 mmHg 76%
01:00 +23°C° 0.1 mm 1 m/S 679 mmHg 77%
02:00 +22°C° 0 mm 1 m/S 679 mmHg 78%
03:00 +22°C° 0 mm 1 m/S 679 mmHg 78%
04:00 +20°C° 0 mm 0 m/S 678 mmHg 79%
05:00 +20°C° 0 mm 0 m/S 678 mmHg 78%
06:00 +20°C° 0 mm 0 m/S 679 mmHg 78%
07:00 +21°C° 0 mm 0 m/S 679 mmHg 77%
08:00 +23°C° 0 mm 0 m/S 679 mmHg 69%
09:00 +27°C° 0 mm 1 m/S 680 mmHg 61%
10:00 +29°C° 0 mm 1 m/S 681 mmHg 53%
11:00 +31°C° 0 mm 1 m/S 680 mmHg 49%
12:00 +32°C° 0 mm 1 m/S 680 mmHg 45%
13:00 +34°C° 0 mm 1 m/S 680 mmHg 41%
14:00 +33°C° 0.1 mm 1 m/S 679 mmHg 44%
15:00 +33°C° 0.1 mm 1 m/S 679 mmHg 47%
16:00 +32°C° 0.1 mm 1 m/S 678 mmHg 49%
17:00 +30°C° 0.2 mm 1 m/S 678 mmHg 60%
18:00 +28°C° 0.2 mm 1 m/S 678 mmHg 70%
19:00 +25°C° 0.2 mm 1 m/S 678 mmHg 80%
20:00 +25°C° 0.3 mm 1 m/S 678 mmHg 81%
21:00 +24°C° 0.3 mm 1 m/S 679 mmHg 81%
22:00 +23°C° 0.3 mm 1 m/S 679 mmHg 82%
23:00 +23°C° 0.2 mm 1 m/S 679 mmHg 82%

übermorgen, 10 August, Montag

Zeit Temperatur Niederschläge Wind Luftdruck Luftfeuchtigkeit
00:00 +23°C° 0.2 mm 1 m/S 679 mmHg 82%
01:00 +22°C° 0.2 mm 1 m/S 678 mmHg 82%
02:00 +22°C° 0.1 mm 1 m/S 678 mmHg 82%
03:00 +22°C° 0.1 mm 1 m/S 678 mmHg 82%
04:00 +22°C° 0.1 mm 1 m/S 677 mmHg 83%
05:00 +22°C° 0 mm 1 m/S 677 mmHg 82%
06:00 +20°C° 0 mm 0 m/S 678 mmHg 81%
07:00 +20°C° 0 mm 0 m/S 678 mmHg 81%
08:00 +25°C° 0 mm 1 m/S 679 mmHg 73%
09:00 +27°C° 0 mm 1 m/S 679 mmHg 65%
10:00 +29°C° 0 mm 1 m/S 680 mmHg 57%
11:00 +30°C° 0.1 mm 1 m/S 680 mmHg 53%
12:00 +32°C° 0.1 mm 1 m/S 679 mmHg 50%
13:00 +33°C° 0.1 mm 1 m/S 679 mmHg 46%
14:00 +32°C° 0.2 mm 1 m/S 678 mmHg 49%
15:00 +32°C° 0.2 mm 2 m/S 677 mmHg 52%
16:00 +31°C° 0.2 mm 2 m/S 677 mmHg 56%
17:00 +29°C° 0.4 mm 2 m/S 677 mmHg 65%
18:00 +27°C° 0.4 mm 1 m/S 677 mmHg 75%
19:00 +24°C° 0.4 mm 1 m/S 676 mmHg 84%
20:00 +24°C° 0 mm 1 m/S 677 mmHg 85%
21:00 +23°C° 0 mm 1 m/S 678 mmHg 85%
22:00 +23°C° 0 mm 1 m/S 678 mmHg 85%
23:00 +23°C° 0 mm 1 m/S 678 mmHg 86%

11 August, Dienstag

Zeit Temperatur Niederschläge Wind Luftdruck Luftfeuchtigkeit
00:00 +22°C° 0 mm 1 m/S 678 mmHg 86%
01:00 +20°C° 0 mm 0 m/S 677 mmHg 86%
02:00 +20°C° 0 mm 0 m/S 677 mmHg 86%
03:00 +20°C° 0 mm 0 m/S 677 mmHg 86%
04:00 +19°C° 0 mm 0 m/S 676 mmHg 86%
05:00 +20°C° 0 mm 0 m/S 677 mmHg 85%
06:00 +20°C° 0 mm 0 m/S 677 mmHg 83%
07:00 +20°C° 0 mm 0 m/S 677 mmHg 82%
08:00 +25°C° 0 mm 1 m/S 678 mmHg 75%
09:00 +27°C° 0 mm 1 m/S 678 mmHg 69%
10:00 +29°C° 0 mm 1 m/S 679 mmHg 62%
11:00 +30°C° 0 mm 1 m/S 679 mmHg 58%
12:00 +31°C° 0 mm 1 m/S 678 mmHg 53%
13:00 +33°C° 0 mm 1 m/S 678 mmHg 49%
14:00 +32°C° 0.3 mm 1 m/S 677 mmHg 51%
15:00 +32°C° 0.3 mm 1 m/S 676 mmHg 54%
16:00 +31°C° 0.3 mm 2 m/S 676 mmHg 56%
17:00 +29°C° 0.9 mm 1 m/S 676 mmHg 66%
18:00 +27°C° 0.9 mm 1 m/S 676 mmHg 76%
19:00 +24°C° 0.9 mm 1 m/S 676 mmHg 86%
20:00 +24°C° 0.9 mm 1 m/S 677 mmHg 87%
21:00 +23°C° 0.9 mm 1 m/S 677 mmHg 87%
22:00 +23°C° 0.9 mm 1 m/S 678 mmHg 88%
23:00 +23°C° 0.5 mm 1 m/S 678 mmHg 88%

12 August, Mittwoch

Zeit Temperatur Niederschläge Wind Luftdruck Luftfeuchtigkeit
00:00 +23°C° 0.5 mm 1 m/S 677 mmHg 89%
01:00 +20°C° 0.5 mm 0 m/S 677 mmHg 89%
02:00 +20°C° 0.2 mm 0 m/S 677 mmHg 90%
03:00 +20°C° 0.2 mm 0 m/S 676 mmHg 90%
04:00 +20°C° 0.2 mm 0 m/S 676 mmHg 90%
05:00 +20°C° 0 mm 0 m/S 677 mmHg 89%
06:00 +20°C° 0 mm 0 m/S 677 mmHg 88%
07:00 +20°C° 0 mm 0 m/S 677 mmHg 87%
08:00 +22°C° 0 mm 0 m/S 678 mmHg 81%
09:00 +26°C° 0 mm 1 m/S 678 mmHg 75%
10:00 +28°C° 0 mm 1 m/S 679 mmHg 68%
11:00 +29°C° 0.3 mm 1 m/S 678 mmHg 64%
12:00 +31°C° 0.3 mm 1 m/S 678 mmHg 59%
13:00 +32°C° 0.3 mm 1 m/S 677 mmHg 54%
14:00 +31°C° 0.7 mm 1 m/S 677 mmHg 57%
15:00 +31°C° 0.7 mm 1 m/S 676 mmHg 60%
16:00 +30°C° 0.7 mm 1 m/S 676 mmHg 63%
17:00 +28°C° 1.8 mm 1 m/S 676 mmHg 71%
18:00 +26°C° 1.8 mm 1 m/S 676 mmHg 79%
19:00 +24°C° 1.8 mm 1 m/S 676 mmHg 87%
20:00 +24°C° 1.5 mm 1 m/S 676 mmHg 88%
21:00 +23°C° 1.5 mm 1 m/S 677 mmHg 89%
22:00 +23°C° 1.5 mm 1 m/S 677 mmHg 89%
23:00 +23°C° 1 mm 1 m/S 677 mmHg 89%

13 August, Donnerstag

Zeit Temperatur Niederschläge Wind Luftdruck Luftfeuchtigkeit
00:00 +22°C° 1 mm 1 m/S 677 mmHg 89%
01:00 +22°C° 1 mm 1 m/S 676 mmHg 90%
02:00 +22°C° 0.3 mm 1 m/S 676 mmHg 90%
03:00 +20°C° 0.3 mm 0 m/S 676 mmHg 90%
04:00 +20°C° 0.3 mm 0 m/S 676 mmHg 90%
05:00 +20°C° 0.1 mm 0 m/S 676 mmHg 89%
06:00 +20°C° 0.1 mm 0 m/S 676 mmHg 88%
07:00 +20°C° 0.1 mm 0 m/S 677 mmHg 87%
08:00 +22°C° 0 mm 0 m/S 677 mmHg 82%
09:00 +26°C° 0 mm 1 m/S 678 mmHg 76%
10:00 +28°C° 0 mm 1 m/S 678 mmHg 71%
11:00 +29°C° 0.6 mm 1 m/S 678 mmHg 68%
12:00 +29°C° 0.6 mm 1 m/S 678 mmHg 65%
13:00 +30°C° 0.6 mm 1 m/S 677 mmHg 62%
14:00 +30°C° 1.3 mm 1 m/S 677 mmHg 64%
15:00 +29°C° 1.3 mm 1 m/S 676 mmHg 67%
16:00 +29°C° 1.3 mm 1 m/S 675 mmHg 69%
17:00 +27°C° 2.3 mm 1 m/S 676 mmHg 76%
18:00 +26°C° 2.3 mm 1 m/S 676 mmHg 82%
19:00 +24°C° 2.3 mm 1 m/S 676 mmHg 89%
20:00 +24°C° 1.5 mm 1 m/S 676 mmHg 89%
21:00 +23°C° 1.5 mm 1 m/S 677 mmHg 90%
22:00 +23°C° 1.5 mm 1 m/S 677 mmHg 90%
23:00 +23°C° 1.2 mm 1 m/S 677 mmHg 90%
Mehr zeigen